Weather History for Homerville, GA

Change the Weather History Date:

Friday, August 16, 2013

  Actual Average Record
Temperature  
Mean Temperature 80 °F -  
Max Temperature 89 °F 90 °F 100 °F (1957)
Min Temperature 71 °F 68 °F 62 °F (1967)
Cooling Degree Days 15    
Growing Degree Days 30 (Base 50)    
Moisture  
Dew Point 74 °F    
Average Humidity 90    
Maximum Humidity 100    
Minimum Humidity 59    
Precipitation  
Precipitation 0.00 in - - ()
Sea Level Pressure  
Sea Level Pressure 30.02 in    
Wind  
Wind Speed 3 mph (South)    
Max Wind Speed 8 mph    
Max Gust Speed 17 mph    
Visibility 8 miles    
Events Rain , Thunderstorm    
Averages and records for this station are not official NWS values.
T = Trace of Precipitation, MM = Missing Value Source: NWS Daily Summary

Daily Weather History Graph

Daily Weather History Graph

Search for Another Location

Airport:

Trip Planner

Search our weather history database for the weather conditions in past years. The results will help you decide how hot, cold, wet, or windy it might be!

Date:

Astronomy

Aug. 16, 2013 Rise Set
Actual Time 6:57 AM EDT 8:12 PM EDT
Civil Twilight 6:32 AM EDT 8:37 PM EDT
Nautical Twilight 6:02 AM EDT 9:07 PM EDT
Astronomical Twilight 5:30 AM EDT 9:39 PM EDT
Moon 4:22 PM EDT (8/16) 2:06 AM EDT (8/16)
Length of Visible Light 14h 05m
Length of Day
13h 14m
Waxing Gibbous, 74% of the Moon is Illuminated
Aug 16
Waxing Gibbous
Aug 20
Full
Aug 28
Last Quarter
Sep 5
New
Sep 12
First Quarter

Hourly Weather History & Observations

Time (EDT) Temp. Heat Index Dew Point Humidity Pressure Visibility Wind Dir Wind Speed Gust Speed Precip Events Conditions
12:15 AM 71.6 °F - 71.6 °F 100% 30.04 in 10.0 mi Calm Calm - N/A   Mostly Cloudy
12:35 AM 71.6 °F - 71.6 °F 100% 30.03 in 10.0 mi Calm Calm - N/A   Mostly Cloudy
12:55 AM 71.6 °F - 71.6 °F 100% 30.03 in 10.0 mi Calm Calm - N/A   Clear
1:15 AM 71.6 °F - 71.6 °F 100% 30.02 in 10.0 mi Calm Calm - N/A   Scattered Clouds
1:55 AM 71.6 °F - 71.6 °F 100% 30.01 in 10.0 mi Calm Calm - N/A   Overcast
2:15 AM 71.6 °F - 71.6 °F 100% 30.00 in 10.0 mi East 3.5 mph - N/A   Overcast
2:35 AM 71.6 °F - 71.6 °F 100% 30.00 in 5.0 mi East 3.5 mph - N/A   Overcast
2:55 AM 71.6 °F - 71.6 °F 100% 29.99 in 2.5 mi Calm Calm - N/A   Overcast
3:15 AM 71.6 °F - 71.6 °F 100% 29.99 in 2.0 mi East 3.5 mph - N/A   Overcast
3:35 AM 71.6 °F - 71.6 °F 100% 29.99 in 1.8 mi ESE 3.5 mph - N/A   Overcast
3:55 AM 71.6 °F - 71.6 °F 100% 29.99 in 1.2 mi East 3.5 mph - N/A   Overcast
4:15 AM 71.6 °F - 71.6 °F 100% 30.00 in 1.5 mi ESE 3.5 mph - N/A   Overcast
4:35 AM 71.6 °F - 71.6 °F 100% 30.00 in 1.5 mi ESE 4.6 mph - N/A   Overcast
4:55 AM 71.6 °F - 71.6 °F 100% 30.00 in 1.0 mi ESE 3.5 mph - N/A   Overcast
5:15 AM 71.6 °F - 71.6 °F 100% 30.00 in 0.8 mi ESE 3.5 mph - N/A   Overcast
5:35 AM 71.6 °F - 71.6 °F 100% 30.01 in 0.8 mi SE 3.5 mph - N/A   Overcast
5:55 AM 71.6 °F - 71.6 °F 100% 30.01 in 1.8 mi ESE 3.5 mph - N/A   Overcast
6:15 AM 71.6 °F - 71.6 °F 100% 30.01 in 5.0 mi SE 5.8 mph - N/A   Overcast
6:35 AM 73.4 °F - 73.4 °F 100% 30.01 in 7.0 mi ESE 3.5 mph - N/A   Overcast
6:55 AM 73.4 °F - 73.4 °F 100% 30.02 in 7.0 mi SE 3.5 mph - N/A   Overcast
7:15 AM 73.4 °F - 73.4 °F 100% 30.02 in 5.0 mi SE 3.5 mph - N/A   Overcast
7:35 AM 73.4 °F - 73.4 °F 100% 30.03 in 5.0 mi SSE 4.6 mph - N/A   Overcast
7:55 AM 73.4 °F - 73.4 °F 100% 30.02 in 7.0 mi SE 6.9 mph - N/A   Overcast
8:15 AM 73.4 °F - 73.4 °F 100% 30.02 in 5.0 mi SSE 4.6 mph - N/A   Overcast
8:35 AM 73.4 °F - 73.4 °F 100% 30.03 in 10.0 mi South 3.5 mph - N/A   Overcast
8:55 AM 75.2 °F - 73.4 °F 94% 30.03 in 10.0 mi South 4.6 mph - N/A   Overcast
9:15 AM 77.0 °F - 73.4 °F 89% 30.03 in 10.0 mi SSE 4.6 mph - N/A   Mostly Cloudy
9:35 AM 78.8 °F - 75.2 °F 89% 30.03 in 10.0 mi South 3.5 mph - N/A   Mostly Cloudy
9:55 AM 80.6 °F 86.2 °F 75.2 °F 84% 30.03 in 10.0 mi South 6.9 mph - N/A   Scattered Clouds
10:15 AM 80.6 °F 86.2 °F 75.2 °F 84% 30.04 in 10.0 mi SW 6.9 mph - N/A   Scattered Clouds
10:35 AM 80.6 °F 86.2 °F 75.2 °F 84% 30.04 in 10.0 mi SSW 6.9 mph - N/A   Mostly Cloudy
10:55 AM 82.4 °F 89.5 °F 75.2 °F 79% 30.04 in 10.0 mi SSW 6.9 mph - N/A   Mostly Cloudy
11:15 AM 82.4 °F 88.2 °F 73.4 °F 74% 30.03 in 10.0 mi SSW 4.6 mph - N/A   Scattered Clouds
11:35 AM 82.4 °F 88.2 °F 73.4 °F 74% 30.03 in 10.0 mi WSW 4.6 mph - N/A   Scattered Clouds
11:55 AM 86.0 °F 93.4 °F 73.4 °F 66% 30.03 in 10.0 mi SSW 8.1 mph - N/A   Mostly Cloudy
12:15 PM 86.0 °F 93.4 °F 73.4 °F 66% 30.02 in 10.0 mi SSW 4.6 mph - N/A   Scattered Clouds
12:35 PM 86.0 °F 93.4 °F 73.4 °F 66% 30.01 in 10.0 mi South 5.8 mph - N/A   Scattered Clouds
12:55 PM 86.0 °F 95.1 °F 75.2 °F 70% 30.00 in 10.0 mi West 4.6 mph - N/A   Scattered Clouds
1:15 PM 86.0 °F 95.1 °F 75.2 °F 70% 29.99 in 10.0 mi South 5.8 mph - N/A   Scattered Clouds
1:35 PM 86.0 °F 93.4 °F 73.4 °F 66% 29.99 in 10.0 mi Calm Calm - N/A   Scattered Clouds
1:55 PM 87.8 °F 97.6 °F 75.2 °F 66% 29.99 in 10.0 mi SSW 4.6 mph - N/A   Scattered Clouds
2:15 PM 87.8 °F 97.6 °F 75.2 °F 66% 29.99 in 10.0 mi Calm Calm - N/A   Scattered Clouds
2:35 PM 87.8 °F 95.6 °F 73.4 °F 62% 29.98 in 10.0 mi SSW 4.6 mph - N/A   Scattered Clouds
2:55 PM 87.8 °F 95.6 °F 73.4 °F 62% 29.98 in 10.0 mi SW 5.8 mph - N/A   Scattered Clouds
3:15 PM 89.6 °F 98.2 °F 73.4 °F 59% 29.97 in 10.0 mi WSW 6.9 mph - N/A   Mostly Cloudy
3:35 PM 87.8 °F 95.6 °F 73.4 °F 62% 29.96 in 10.0 mi Calm Calm - N/A   Mostly Cloudy
3:55 PM 86.0 °F 93.4 °F 73.4 °F 66% 29.97 in 10.0 mi West 5.8 mph - N/A Thunderstorm Mostly Cloudy
4:15 PM 80.6 °F 87.1 °F 77.0 °F 89% 29.97 in 4.0 mi SSW 8.1 mph 17.3 mph N/A Rain Rain
4:35 PM 77.0 °F - 75.2 °F 94% 29.97 in 10.0 mi SSE 3.5 mph - N/A Rain Light Rain
4:55 PM 80.6 °F 87.1 °F 77.0 °F 89% 29.97 in 10.0 mi Calm Calm - N/A   Overcast
5:15 PM 80.6 °F 87.1 °F 77.0 °F 89% 29.98 in 10.0 mi SSW 5.8 mph - N/A   Mostly Cloudy
5:35 PM 80.6 °F 87.1 °F 77.0 °F 89% 29.98 in 10.0 mi SSW 8.1 mph - N/A Thunderstorm Thunderstorm
5:55 PM 78.8 °F - 77.0 °F 94% 29.99 in 10.0 mi SSW 8.1 mph - N/A   Overcast
6:15 PM 78.8 °F - 77.0 °F 94% 30.00 in 10.0 mi Calm Calm - N/A   Light Drizzle
6:35 PM 78.8 °F - 73.4 °F 83% 30.01 in 10.0 mi SSW 6.9 mph - N/A   Overcast
6:55 PM 77.0 °F - 73.4 °F 89% 30.01 in 10.0 mi SSW 4.6 mph - N/A   Mostly Cloudy
7:15 PM 77.0 °F - 73.4 °F 89% 30.02 in 10.0 mi WSW 6.9 mph - N/A Rain Light Rain
7:35 PM 77.0 °F - 73.4 °F 89% 30.03 in 10.0 mi West 4.6 mph - N/A Rain Rain
7:55 PM 75.2 °F - 73.4 °F 94% 30.04 in 10.0 mi WNW 5.8 mph - N/A Rain Rain
8:15 PM 75.2 °F - 73.4 °F 94% 30.04 in 10.0 mi Calm Calm - N/A Rain Light Rain
8:35 PM 73.4 °F - 73.4 °F 100% 30.05 in 10.0 mi North 3.5 mph - N/A Rain Light Rain
8:55 PM 73.4 °F - 73.4 °F 100% 30.05 in 10.0 mi Calm Calm - N/A Rain Light Rain
9:15 PM 73.4 °F - 73.4 °F 100% 30.05 in 10.0 mi Calm Calm - N/A   Mostly Cloudy
9:35 PM 73.4 °F - 73.4 °F 100% 30.05 in 10.0 mi Calm Calm - N/A Rain Light Rain
9:55 PM 73.4 °F - 73.4 °F 100% 30.06 in 10.0 mi Calm Calm - N/A Rain Light Rain
10:15 PM 73.4 °F - 73.4 °F 100% 30.07 in 10.0 mi Calm Calm - N/A Rain Light Rain
10:35 PM 73.4 °F - 73.4 °F 100% 30.07 in 5.0 mi Calm Calm - N/A Rain Rain
10:55 PM 73.4 °F - 73.4 °F 100% 30.07 in 10.0 mi Calm Calm - N/A Rain Light Rain
11:15 PM 73.4 °F - 73.4 °F 100% 30.07 in 10.0 mi Calm Calm - N/A Rain Rain
11:35 PM 73.4 °F - 73.4 °F 100% 30.07 in 10.0 mi Calm Calm - N/A Rain Rain
11:55 PM 73.4 °F - 73.4 °F 100% 30.06 in 10.0 mi Calm Calm - N/A   Overcast